Wetterdaten: Montag, 21.01.2019
Datum Zeit Temp. Auen Feucht Auen Luftdruck Regen Richtung Richtung Windben
21.01.2019 00:00 -3,4 C 93 % 1021,6 hPa 0,0 mm O 93 8,0 km/h (2 Bft)
21.01.2019 00:05 -3,4 C 93 % 1021,6 hPa 0,2 mm O 80 9,7 km/h (2 Bft)
21.01.2019 00:10 -3,4 C 93 % 1021,6 hPa 0,0 mm O 93 9,7 km/h (2 Bft)
21.01.2019 00:15 -3,4 C 93 % 1021,6 hPa 0,0 mm O-NO 78 8,0 km/h (2 Bft)
21.01.2019 00:20 -3,4 C 93 % 1021,6 hPa 0,0 mm O 88 9,7 km/h (2 Bft)
21.01.2019 00:25 -3,4 C 93 % 1021,6 hPa 0,0 mm O 90 9,7 km/h (2 Bft)
21.01.2019 00:30 -3,4 C 94 % 1021,6 hPa 0,0 mm O 91 11,3 km/h (2 Bft)
21.01.2019 00:35 -3,4 C 94 % 1021,7 hPa 0,0 mm O 81 11,3 km/h (2 Bft)
21.01.2019 00:40 -3,4 C 94 % 1021,7 hPa 0,0 mm O 88 9,7 km/h (2 Bft)
21.01.2019 00:45 -3,4 C 94 % 1021,6 hPa 0,0 mm O-NO 78 11,3 km/h (2 Bft)
21.01.2019 00:50 -3,4 C 94 % 1021,6 hPa 0,0 mm O-NO 78 8,0 km/h (2 Bft)
21.01.2019 00:55 -3,4 C 94 % 1021,6 hPa 0,0 mm O-NO 78 9,7 km/h (2 Bft)
21.01.2019 01:00 -3,4 C 94 % 1021,5 hPa 0,0 mm O 86 6,4 km/h (2 Bft)
21.01.2019 01:05 -3,4 C 94 % 1021,5 hPa 0,0 mm O-NO 67 8,0 km/h (2 Bft)
21.01.2019 01:10 -3,4 C 94 % 1021,6 hPa 0,0 mm O 90 11,3 km/h (2 Bft)
21.01.2019 01:15 -3,4 C 94 % 1021,6 hPa 0,0 mm O 84 11,3 km/h (2 Bft)
21.01.2019 01:20 -3,4 C 94 % 1021,6 hPa 0,0 mm O 93 11,3 km/h (2 Bft)
21.01.2019 01:25 -3,4 C 94 % 1021,6 hPa 0,0 mm O 96 11,3 km/h (2 Bft)
21.01.2019 01:30 -3,4 C 94 % 1021,6 hPa 0,0 mm O 100 11,3 km/h (2 Bft)
21.01.2019 01:35 -3,4 C 94 % 1021,7 hPa 0,0 mm O 90 9,7 km/h (2 Bft)
21.01.2019 01:40 -3,4 C 94 % 1021,7 hPa 0,0 mm O 90 11,3 km/h (2 Bft)
21.01.2019 01:45 -3,4 C 94 % 1021,7 hPa 0,0 mm O 92 9,7 km/h (2 Bft)
21.01.2019 01:50 -3,4 C 94 % 1021,7 hPa 0,0 mm O 79 9,7 km/h (2 Bft)
21.01.2019 01:55 -3,4 C 94 % 1021,7 hPa 0,0 mm O-SO 113 8,0 km/h (2 Bft)
21.01.2019 02:00 -3,4 C 94 % 1021,8 hPa 0,0 mm O-SO 107 8,0 km/h (2 Bft)
21.01.2019 02:05 -3,4 C 94 % 1021,8 hPa 0,0 mm O 97 8,0 km/h (2 Bft)
21.01.2019 02:10 -3,4 C 94 % 1021,8 hPa 0,0 mm O 91 8,0 km/h (2 Bft)
21.01.2019 02:15 -3,4 C 94 % 1021,8 hPa 0,0 mm O 91 8,0 km/h (2 Bft)
21.01.2019 02:20 -3,4 C 94 % 1021,8 hPa 0,0 mm O 94 9,7 km/h (2 Bft)
21.01.2019 02:25 -3,4 C 93 % 1021,8 hPa 0,0 mm O 94 8,0 km/h (2 Bft)
21.01.2019 02:30 -3,4 C 93 % 1021,8 hPa 0,0 mm O 94 8,0 km/h (2 Bft)
21.01.2019 02:35 -3,4 C 94 % 1021,7 hPa 0,0 mm O 94 8,0 km/h (2 Bft)
21.01.2019 02:40 -3,4 C 94 % 1021,7 hPa 0,0 mm O 94 8,0 km/h (2 Bft)
21.01.2019 02:45 -3,4 C 94 % 1021,7 hPa 0,0 mm O-NO 77 8,0 km/h (2 Bft)
21.01.2019 02:50 -3,4 C 94 % 1021,7 hPa 0,0 mm O-NO 77 6,4 km/h (2 Bft)
21.01.2019 02:55 -3,4 C 94 % 1021,6 hPa 0,0 mm O-NO 77 6,4 km/h (2 Bft)
21.01.2019 03:00 -3,4 C 94 % 1021,6 hPa 0,0 mm O-NO 77 6,4 km/h (2 Bft)
21.01.2019 03:05 -3,4 C 94 % 1021,6 hPa 0,0 mm O-NO 77 6,4 km/h (2 Bft)
21.01.2019 03:10 -3,4 C 94 % 1021,6 hPa 0,0 mm O-NO 77 6,4 km/h (2 Bft)
21.01.2019 03:15 -3,5 C 94 % 1021,5 hPa 0,0 mm O-NO 77 4,8 km/h (1 Bft)
21.01.2019 03:20 -3,5 C 94 % 1021,6 hPa 0,0 mm O-NO 77 6,4 km/h (2 Bft)
21.01.2019 03:25 -3,4 C 94 % 1021,5 hPa 0,0 mm O-NO 77 6,4 km/h (2 Bft)
21.01.2019 03:30 -3,5 C 94 % 1021,5 hPa 0,0 mm O-NO 77 6,4 km/h (2 Bft)
21.01.2019 03:35 -3,4 C 94 % 1021,5 hPa 0,0 mm O 80 8,0 km/h (2 Bft)
21.01.2019 03:40 -3,4 C 94 % 1021,5 hPa 0,0 mm O-NO 74 8,0 km/h (2 Bft)
21.01.2019 03:45 -3,5 C 94 % 1021,5 hPa 0,0 mm O-NO 72 6,4 km/h (2 Bft)
21.01.2019 03:50 -3,5 C 94 % 1021,5 hPa 0,0 mm O 90 8,0 km/h (2 Bft)
21.01.2019 03:55 -3,4 C 94 % 1021,5 hPa 0,0 mm O 96 8,0 km/h (2 Bft)
21.01.2019 04:00 -3,4 C 94 % 1021,4 hPa 0,0 mm O 101 8,0 km/h (2 Bft)
21.01.2019 04:05 -3,4 C 94 % 1021,3 hPa 0,0 mm O 81 8,0 km/h (2 Bft)
21.01.2019 04:10 -3,4 C 94 % 1021,4 hPa 0,0 mm O 95 8,0 km/h (2 Bft)
21.01.2019 04:15 -3,4 C 94 % 1021,3 hPa 0,0 mm O 101 8,0 km/h (2 Bft)
21.01.2019 04:20 -3,4 C 94 % 1021,3 hPa 0,0 mm O 89 9,7 km/h (2 Bft)
21.01.2019 04:25 -3,4 C 94 % 1021,3 hPa 0,0 mm O 82 8,0 km/h (2 Bft)
21.01.2019 04:30 -3,4 C 94 % 1021,3 hPa 0,0 mm O-SO 107 11,3 km/h (2 Bft)
21.01.2019 04:35 -3,4 C 94 % 1021,2 hPa 0,0 mm O 88 8,0 km/h (2 Bft)
21.01.2019 04:40 -3,4 C 94 % 1021,2 hPa 0,0 mm O 101 8,0 km/h (2 Bft)
21.01.2019 04:45 -3,4 C 93 % 1021,3 hPa 0,0 mm O 91 8,0 km/h (2 Bft)
21.01.2019 04:50 -3,4 C 93 % 1021,2 hPa 0,0 mm O 96 9,7 km/h (2 Bft)
21.01.2019 04:55 -3,4 C 93 % 1021,2 hPa 0,0 mm O 96 9,7 km/h (2 Bft)
21.01.2019 05:00 -3,4 C 93 % 1021,2 hPa 0,0 mm O 96 8,0 km/h (2 Bft)
21.01.2019 05:05 -3,4 C 93 % 1021,2 hPa 0,0 mm O 95 8,0 km/h (2 Bft)
21.01.2019 05:10 -3,4 C 93 % 1021,2 hPa 0,0 mm O 101 9,7 km/h (2 Bft)
21.01.2019 05:15 -3,4 C 93 % 1021,2 hPa 0,0 mm O 88 9,7 km/h (2 Bft)
21.01.2019 05:20 -3,4 C 93 % 1021,1 hPa 0,0 mm O 85 9,7 km/h (2 Bft)
21.01.2019 05:25 -3,3 C 93 % 1021,1 hPa 0,0 mm O 94 9,7 km/h (2 Bft)
21.01.2019 05:30 -3,3 C 93 % 1021,1 hPa 0,0 mm O 93 8,0 km/h (2 Bft)
21.01.2019 05:35 -3,3 C 93 % 1021,1 hPa 0,0 mm O 94 9,7 km/h (2 Bft)
21.01.2019 05:40 -3,3 C 93 % 1021,1 hPa 0,0 mm O-NO 74 11,3 km/h (2 Bft)
21.01.2019 05:45 -3,3 C 93 % 1021,2 hPa 0,0 mm O 96 11,3 km/h (2 Bft)
21.01.2019 05:50 -3,3 C 93 % 1021,2 hPa 0,0 mm O 84 9,7 km/h (2 Bft)
21.01.2019 05:55 -3,3 C 93 % 1021,2 hPa 0,0 mm O 81 11,3 km/h (2 Bft)
21.01.2019 06:00 -3,3 C 93 % 1021,2 hPa 0,0 mm O-NO 76 8,0 km/h (2 Bft)
21.01.2019 06:05 -3,3 C 93 % 1021,1 hPa 0,0 mm O-NO 76 6,4 km/h (2 Bft)
21.01.2019 06:10 -3,3 C 93 % 1021,2 hPa 0,0 mm O 98 8,0 km/h (2 Bft)
21.01.2019 06:15 -3,3 C 93 % 1021,2 hPa 0,0 mm O-SO 108 6,4 km/h (2 Bft)
21.01.2019 06:20 -3,3 C 93 % 1021,2 hPa 0,0 mm O 96 8,0 km/h (2 Bft)
21.01.2019 06:25 -3,4 C 93 % 1021,2 hPa 0,0 mm O 96 9,7 km/h (2 Bft)
21.01.2019 06:30 -3,4 C 93 % 1021,2 hPa 0,0 mm O 98 8,0 km/h (2 Bft)
21.01.2019 06:35 -3,4 C 93 % 1021,3 hPa 0,0 mm O 80 8,0 km/h (2 Bft)
21.01.2019 06:40 -3,3 C 93 % 1021,3 hPa 0,0 mm O 80 8,0 km/h (2 Bft)
21.01.2019 06:45 -3,3 C 93 % 1021,3 hPa 0,0 mm O 99 8,0 km/h (2 Bft)
21.01.2019 06:50 -3,3 C 93 % 1021,4 hPa 0,0 mm O 99 8,0 km/h (2 Bft)
21.01.2019 06:55 -3,3 C 93 % 1021,4 hPa 0,0 mm O 99 8,0 km/h (2 Bft)
21.01.2019 07:00 -3,3 C 93 % 1021,4 hPa 0,0 mm O 99 4,8 km/h (1 Bft)
21.01.2019 07:05 -3,3 C 93 % 1021,4 hPa 0,0 mm O 101 8,0 km/h (2 Bft)
21.01.2019 07:10 -3,3 C 93 % 1021,5 hPa 0,0 mm O 98 8,0 km/h (2 Bft)
21.01.2019 07:15 -3,3 C 93 % 1021,5 hPa 0,0 mm O-SO 113 8,0 km/h (2 Bft)
21.01.2019 07:20 -3,3 C 93 % 1021,5 hPa 0,0 mm O-SO 119 8,0 km/h (2 Bft)
21.01.2019 07:25 -3,3 C 93 % 1021,5 hPa 0,0 mm O-SO 107 9,7 km/h (2 Bft)
21.01.2019 07:30 -3,3 C 93 % 1021,5 hPa 0,0 mm O-SO 107 8,0 km/h (2 Bft)
21.01.2019 07:35 -3,2 C 93 % 1021,6 hPa 0,0 mm O 86 9,7 km/h (2 Bft)
21.01.2019 07:40 -3,2 C 93 % 1021,6 hPa 0,0 mm O-NO 66 8,0 km/h (2 Bft)
21.01.2019 07:45 -3,3 C 93 % 1021,7 hPa 0,0 mm O-NO 61 8,0 km/h (2 Bft)
21.01.2019 07:50 -3,3 C 93 % 1021,7 hPa 0,0 mm O-NO 61 6,4 km/h (2 Bft)
21.01.2019 07:55 -3,3 C 93 % 1021,7 hPa 0,0 mm O-NO 63 6,4 km/h (2 Bft)
21.01.2019 08:00 -3,3 C 93 % 1021,8 hPa 0,0 mm O-NO 63 6,4 km/h (2 Bft)
21.01.2019 08:05 -3,3 C 93 % 1021,8 hPa 0,0 mm O-NO 58 8,0 km/h (2 Bft)
21.01.2019 08:10 -3,3 C 93 % 1021,8 hPa 0,0 mm O-NO 63 8,0 km/h (2 Bft)
21.01.2019 08:15 -3,3 C 93 % 1021,9 hPa 0,0 mm O-NO 63 8,0 km/h (2 Bft)
21.01.2019 08:20 -3,3 C 93 % 1021,9 hPa 0,0 mm O-NO 65 8,0 km/h (2 Bft)
21.01.2019 08:25 -3,3 C 93 % 1022,0 hPa 0,0 mm O-NO 64 6,4 km/h (2 Bft)
21.01.2019 08:30 -3,3 C 93 % 1022,0 hPa 0,0 mm O-NO 64 6,4 km/h (2 Bft)
21.01.2019 08:35 -3,3 C 93 % 1022,0 hPa 0,0 mm O-NO 65 6,4 km/h (2 Bft)
21.01.2019 08:40 -3,3 C 93 % 1022,0 hPa 0,0 mm O-NO 65 6,4 km/h (2 Bft)
21.01.2019 08:45 -3,3 C 93 % 1022,0 hPa 0,0 mm O-NO 65 4,8 km/h (1 Bft)
21.01.2019 08:50 -3,3 C 92 % 1022,0 hPa 0,0 mm O-NO 65 6,4 km/h (2 Bft)
21.01.2019 08:55 -3,3 C 92 % 1022,0 hPa 0,0 mm O-NO 65 8,0 km/h (2 Bft)
21.01.2019 09:00 -3,3 C 92 % 1022,0 hPa 0,0 mm O-NO 66 8,0 km/h (2 Bft)
21.01.2019 09:05 -3,3 C 92 % 1022,1 hPa 0,0 mm O-NO 67 8,0 km/h (2 Bft)
21.01.2019 09:10 -3,3 C 92 % 1022,0 hPa 0,0 mm O-NO 65 6,4 km/h (2 Bft)
21.01.2019 09:15 -3,3 C 92 % 1022,2 hPa 0,0 mm O-NO 65 8,0 km/h (2 Bft)
21.01.2019 09:20 -3,3 C 92 % 1022,2 hPa 0,0 mm O-NO 65 6,4 km/h (2 Bft)
21.01.2019 09:25 -3,3 C 92 % 1022,2 hPa 0,0 mm O-NO 65 8,0 km/h (2 Bft)
21.01.2019 09:30 -3,3 C 92 % 1022,2 hPa 0,0 mm O-NO 67 6,4 km/h (2 Bft)
21.01.2019 09:35 -3,4 C 92 % 1022,2 hPa 0,0 mm O-NO 67 6,4 km/h (2 Bft)
21.01.2019 09:40 -3,3 C 92 % 1022,2 hPa 0,0 mm O-NO 67 6,4 km/h (2 Bft)
21.01.2019 09:45 -3,3 C 92 % 1022,2 hPa 0,0 mm O 94 6,4 km/h (2 Bft)
21.01.2019 09:50 -3,3 C 92 % 1022,2 hPa 0,0 mm O-NO 78 8,0 km/h (2 Bft)
21.01.2019 09:55 -3,2 C 92 % 1022,2 hPa 0,0 mm O-NO 78 6,4 km/h (2 Bft)
21.01.2019 10:00 -3,2 C 92 % 1022,2 hPa 0,0 mm O-NO 72 4,8 km/h (1 Bft)
21.01.2019 10:05 -3,2 C 92 % 1022,2 hPa 0,0 mm O-NO 69 6,4 km/h (2 Bft)
21.01.2019 10:10 -3,2 C 92 % 1022,2 hPa 0,0 mm O-NO 69 4,8 km/h (1 Bft)
21.01.2019 10:15 -3,2 C 92 % 1022,2 hPa 0,0 mm O-NO 70 6,4 km/h (2 Bft)
21.01.2019 10:20 -3,1 C 92 % 1022,4 hPa 0,0 mm O 101 8,0 km/h (2 Bft)
21.01.2019 10:25 -3,1 C 92 % 1022,3 hPa 0,0 mm O 84 8,0 km/h (2 Bft)
21.01.2019 10:30 -3,0 C 92 % 1022,3 hPa 0,0 mm O 84 8,0 km/h (2 Bft)
21.01.2019 10:35 -3,0 C 92 % 1022,3 hPa 0,0 mm O-NO 78 9,7 km/h (2 Bft)
21.01.2019 10:40 -2,9 C 92 % 1022,4 hPa 0,0 mm O 79 8,0 km/h (2 Bft)
21.01.2019 10:45 -2,9 C 92 % 1022,4 hPa 0,0 mm O-NO 77 8,0 km/h (2 Bft)
21.01.2019 10:50 -2,9 C 92 % 1022,4 hPa 0,0 mm O-NO 77 6,4 km/h (2 Bft)
21.01.2019 10:55 -2,8 C 91 % 1022,2 hPa 0,0 mm O 90 8,0 km/h (2 Bft)
21.01.2019 11:00 -2,7 C 92 % 1022,2 hPa 0,0 mm O 90 9,7 km/h (2 Bft)
21.01.2019 11:05 -2,7 C 92 % 1022,2 hPa 0,0 mm O 80 8,0 km/h (2 Bft)
21.01.2019 11:10 -2,8 C 91 % 1022,1 hPa 0,0 mm O-NO 77 8,0 km/h (2 Bft)
21.01.2019 11:15 -2,7 C 91 % 1022,0 hPa 0,0 mm O 82 8,0 km/h (2 Bft)
21.01.2019 11:20 -2,7 C 92 % 1022,0 hPa 0,0 mm O-NO 78 9,7 km/h (2 Bft)
21.01.2019 11:25 -2,7 C 91 % 1022,0 hPa 0,0 mm O 91 8,0 km/h (2 Bft)
21.01.2019 11:30 -2,6 C 91 % 1021,9 hPa 0,0 mm O 93 9,7 km/h (2 Bft)
21.01.2019 11:35 -2,6 C 91 % 1021,9 hPa 0,0 mm O-NO 78 8,0 km/h (2 Bft)
21.01.2019 11:40 -2,5 C 91 % 1021,8 hPa 0,0 mm O 79 9,7 km/h (2 Bft)
21.01.2019 11:45 -2,4 C 91 % 1021,7 hPa 0,0 mm O 79 4,8 km/h (1 Bft)
21.01.2019 11:50 -2,4 C 91 % 1021,7 hPa 0,0 mm O 79 8,0 km/h (2 Bft)
21.01.2019 11:55 -2,4 C 91 % 1021,7 hPa 0,0 mm O-NO 75 8,0 km/h (2 Bft)
21.01.2019 12:00 -2,3 C 91 % 1021,7 hPa 0,0 mm O-NO 64 8,0 km/h (2 Bft)
21.01.2019 12:05 -2,3 C 91 % 1021,6 hPa 0,0 mm O 89 8,0 km/h (2 Bft)
21.01.2019 12:10 -2,3 C 91 % 1021,5 hPa 0,0 mm O 81 8,0 km/h (2 Bft)
21.01.2019 12:15 -2,3 C 91 % 1021,4 hPa 0,0 mm O 94 8,0 km/h (2 Bft)
21.01.2019 12:20 -2,2 C 91 % 1021,4 hPa 0,0 mm O-SO 111 6,4 km/h (2 Bft)
21.01.2019 12:25 -2,2 C 91 % 1021,4 hPa 0,0 mm O-NO 78 8,0 km/h (2 Bft)
21.01.2019 12:30 -2,2 C 91 % 1021,3 hPa 0,0 mm O-SO 109 8,0 km/h (2 Bft)
21.01.2019 12:35 -2,2 C 91 % 1021,2 hPa 0,0 mm O-SO 109 4,8 km/h (1 Bft)
21.01.2019 12:40 -2,1 C 91 % 1021,3 hPa 0,0 mm O-SO 109 4,8 km/h (1 Bft)
21.01.2019 12:45 -2,1 C 91 % 1021,2 hPa 0,0 mm O-SO 109 4,8 km/h (1 Bft)
21.01.2019 12:50 -2,1 C 91 % 1021,2 hPa 0,0 mm O-SO 121 6,4 km/h (2 Bft)
21.01.2019 12:55 -2,0 C 90 % 1021,2 hPa 0,0 mm O-SO 121 4,8 km/h (1 Bft)
21.01.2019 13:00 -1,9 C 90 % 1021,2 hPa 0,0 mm O-SO 121 6,4 km/h (2 Bft)
21.01.2019 13:05 -1,9 C 90 % 1021,2 hPa 0,0 mm SO 129 6,4 km/h (2 Bft)
21.01.2019 13:10 -1,9 C 90 % 1021,1 hPa 0,0 mm SO 129 4,8 km/h (1 Bft)
21.01.2019 13:15 -1,9 C 90 % 1021,0 hPa 0,0 mm SO 129 6,4 km/h (2 Bft)
21.01.2019 13:20 -1,9 C 90 % 1021,0 hPa 0,0 mm SO 129 6,4 km/h (2 Bft)
21.01.2019 13:25 -1,8 C 90 % 1020,9 hPa 0,0 mm SO 129 4,8 km/h (1 Bft)
21.01.2019 13:30 -1,8 C 90 % 1021,0 hPa 0,0 mm SO 129 3,2 km/h (1 Bft)
21.01.2019 13:35 -1,8 C 90 % 1020,9 hPa 0,0 mm SO 129 6,4 km/h (2 Bft)
21.01.2019 13:40 -1,8 C 90 % 1020,9 hPa 0,0 mm SO 129 4,8 km/h (1 Bft)
21.01.2019 13:45 -1,7 C 90 % 1020,8 hPa 0,0 mm SO 129 4,8 km/h (1 Bft)
21.01.2019 13:50 -1,7 C 90 % 1020,8 hPa 0,0 mm SO 129 4,8 km/h (1 Bft)
21.01.2019 13:55 -1,7 C 90 % 1020,8 hPa 0,0 mm SO 129 4,8 km/h (1 Bft)
21.01.2019 14:00 -1,6 C 90 % 1020,8 hPa 0,0 mm SO 129 6,4 km/h (2 Bft)
21.01.2019 14:05 -1,6 C 90 % 1020,8 hPa 0,0 mm SO 129 4,8 km/h (1 Bft)
21.01.2019 14:10 -1,6 C 90 % 1020,7 hPa 0,0 mm SO 129 4,8 km/h (1 Bft)
21.01.2019 14:15 -1,6 C 90 % 1020,7 hPa 0,0 mm SO 129 4,8 km/h (1 Bft)
21.01.2019 14:20 -1,5 C 90 % 1020,7 hPa 0,0 mm SO 129 4,8 km/h (1 Bft)
21.01.2019 14:25 -1,6 C 90 % 1020,7 hPa 0,0 mm SO 129 4,8 km/h (1 Bft)
21.01.2019 14:30 -1,6 C 90 % 1020,7 hPa 0,0 mm SO 129 4,8 km/h (1 Bft)
21.01.2019 14:35 -1,6 C 90 % 1020,7 hPa 0,0 mm SO 129 4,8 km/h (1 Bft)
21.01.2019 14:40 -1,6 C 90 % 1020,6 hPa 0,0 mm SO 129 4,8 km/h (1 Bft)
21.01.2019 14:45 -1,6 C 90 % 1020,6 hPa 0,0 mm SO 129 4,8 km/h (1 Bft)
21.01.2019 14:50 -1,6 C 90 % 1020,6 hPa 0,0 mm SO 129 4,8 km/h (1 Bft)
21.01.2019 14:55 -1,6 C 90 % 1020,6 hPa 0,0 mm SO 129 3,2 km/h (1 Bft)
21.01.2019 15:00 -1,6 C 90 % 1020,5 hPa 0,0 mm SO 129 3,2 km/h (1 Bft)
21.01.2019 15:05 -1,6 C 90 % 1020,5 hPa 0,0 mm SO 129 4,8 km/h (1 Bft)
21.01.2019 15:10 -1,5 C 90 % 1020,5 hPa 0,0 mm SO 129 3,2 km/h (1 Bft)
21.01.2019 15:15 -1,5 C 90 % 1020,5 hPa 0,0 mm SO 129 3,2 km/h (1 Bft)
21.01.2019 15:20 -1,5 C 90 % 1020,5 hPa 0,0 mm SO 129 4,8 km/h (1 Bft)
21.01.2019 15:25 -1,5 C 90 % 1020,5 hPa 0,0 mm SO 129 4,8 km/h (1 Bft)
21.01.2019 15:30 -1,6 C 90 % 1020,4 hPa 0,0 mm SO 129 3,2 km/h (1 Bft)
21.01.2019 15:35 -1,5 C 90 % 1020,4 hPa 0,0 mm SO 129 4,8 km/h (1 Bft)
21.01.2019 15:40 -1,6 C 90 % 1020,4 hPa 0,0 mm SO 129 3,2 km/h (1 Bft)
21.01.2019 15:45 -1,6 C 90 % 1020,5 hPa 0,0 mm SO 129 0,0 km/h (0 Bft)
21.01.2019 15:50 -1,6 C 90 % 1020,5 hPa 0,0 mm SO 129 3,2 km/h (1 Bft)
21.01.2019 15:55 -1,6 C 90 % 1020,5 hPa 0,0 mm SO 129 0,0 km/h (0 Bft)
21.01.2019 16:00 -1,6 C 90 % 1020,4 hPa 0,0 mm SO 129 1,6 km/h (1 Bft)
21.01.2019 16:05 -1,7 C 90 % 1020,4 hPa 0,0 mm SO 129 0,0 km/h (0 Bft)
21.01.2019 16:10 -1,7 C 90 % 1020,3 hPa 0,0 mm SO 129 0,0 km/h (0 Bft)
21.01.2019 16:15 -1,7 C 90 % 1020,3 hPa 0,0 mm SO 129 0,0 km/h (0 Bft)
21.01.2019 16:20 -1,7 C 91 % 1020,4 hPa 0,0 mm SO 129 0,0 km/h (0 Bft)
21.01.2019 16:25 -1,7 C 91 % 1020,3 hPa 0,0 mm SO 129 0,0 km/h (0 Bft)
21.01.2019 16:30 -1,7 C 91 % 1020,4 hPa 0,0 mm SO 129 0,0 km/h (0 Bft)
21.01.2019 16:35 -1,7 C 91 % 1020,4 hPa 0,0 mm SO 129 0,0 km/h (0 Bft)
21.01.2019 16:40 -1,7 C 91 % 1020,3 hPa 0,0 mm SO 129 0,0 km/h (0 Bft)
21.01.2019 16:45 -1,7 C 91 % 1020,3 hPa 0,0 mm SO 129 0,0 km/h (0 Bft)
21.01.2019 16:50 -1,7 C 91 % 1020,3 hPa 0,0 mm SO 129 0,0 km/h (0 Bft)
21.01.2019 16:55 -1,7 C 91 % 1020,3 hPa 0,0 mm SO 129 0,0 km/h (0 Bft)
21.01.2019 17:00 -1,8 C 91 % 1020,4 hPa 0,0 mm SO 129 0,0 km/h (0 Bft)
21.01.2019 17:05 -1,8 C 91 % 1020,3 hPa 0,0 mm SO 129 0,0 km/h (0 Bft)
21.01.2019 17:10 -1,8 C 91 % 1020,4 hPa 0,0 mm SO 129 0,0 km/h (0 Bft)
21.01.2019 17:15 -1,8 C 91 % 1020,4 hPa 0,0 mm SO 129 0,0 km/h (0 Bft)
21.01.2019 17:20 -1,8 C 91 % 1020,4 hPa 0,0 mm SO 129 0,0 km/h (0 Bft)
21.01.2019 17:25 -1,8 C 91 % 1020,4 hPa 0,0 mm SO 129 0,0 km/h (0 Bft)
21.01.2019 17:30 -1,9 C 91 % 1020,4 hPa 0,0 mm SO 129 0,0 km/h (0 Bft)
21.01.2019 17:35 -1,9 C 91 % 1020,4 hPa 0,0 mm SO 129 0,0 km/h (0 Bft)
21.01.2019 17:40 -1,9 C 91 % 1020,4 hPa 0,0 mm SO 129 0,0 km/h (0 Bft)
21.01.2019 17:45 -1,9 C 91 % 1020,4 hPa 0,0 mm SO 129 0,0 km/h (0 Bft)
21.01.2019 17:50 -2,0 C 91 % 1020,4 hPa 0,0 mm SO 129 0,0 km/h (0 Bft)
21.01.2019 17:55 -2,0 C 91 % 1020,4 hPa 0,0 mm SO 129 0,0 km/h (0 Bft)
21.01.2019 18:00 -2,0 C 92 % 1020,4 hPa 0,0 mm SO 129 0,0 km/h (0 Bft)
21.01.2019 18:05 -2,0 C 92 % 1020,4 hPa 0,0 mm SO 129 0,0 km/h (0 Bft)
21.01.2019 18:10 -2,1 C 92 % 1020,4 hPa 0,0 mm SO 129 0,0 km/h (0 Bft)
21.01.2019 18:15 -2,1 C 92 % 1020,3 hPa 0,0 mm SO 129 0,0 km/h (0 Bft)
21.01.2019 18:20 -2,1 C 92 % 1020,4 hPa 0,0 mm SO 129 0,0 km/h (0 Bft)
21.01.2019 18:25 -2,1 C 92 % 1020,3 hPa 0,0 mm SO 129 0,0 km/h (0 Bft)
21.01.2019 18:30 -2,1 C 92 % 1020,3 hPa 0,0 mm SO 129 0,0 km/h (0 Bft)
21.01.2019 18:35 -2,2 C 92 % 1020,3 hPa 0,0 mm SO 129 0,0 km/h (0 Bft)
21.01.2019 18:40 -2,2 C 92 % 1020,4 hPa 0,0 mm SO 129 0,0 km/h (0 Bft)
21.01.2019 18:45 -2,2 C 92 % 1020,4 hPa 0,0 mm SO 129 0,0 km/h (0 Bft)
21.01.2019 18:50 -2,3 C 92 % 1020,3 hPa 0,0 mm SO 129 0,0 km/h (0 Bft)
21.01.2019 18:55 -2,3 C 92 % 1020,3 hPa 0,0 mm SO 129 0,0 km/h (0 Bft)
21.01.2019 19:00 -2,3 C 92 % 1020,3 hPa 0,0 mm SO 129 0,0 km/h (0 Bft)
21.01.2019 19:05 -2,3 C 92 % 1020,4 hPa 0,0 mm SO 129 0,0 km/h (0 Bft)
21.01.2019 19:10 -2,3 C 92 % 1020,3 hPa 0,0 mm SO 129 0,0 km/h (0 Bft)
21.01.2019 19:15 -2,3 C 92 % 1020,3 hPa 0,0 mm SO 129 0,0 km/h (0 Bft)
21.01.2019 19:20 -2,3 C 92 % 1020,3 hPa 0,0 mm SO 129 0,0 km/h (0 Bft)
21.01.2019 19:25 -2,3 C 92 % 1020,3 hPa 0,0 mm SO 129 0,0 km/h (0 Bft)
21.01.2019 19:30 -2,3 C 92 % 1020,3 hPa 0,0 mm SO 129 0,0 km/h (0 Bft)
21.01.2019 19:35 -2,3 C 92 % 1020,3 hPa 0,0 mm SO 129 0,0 km/h (0 Bft)
21.01.2019 19:40 -2,3 C 92 % 1020,3 hPa 0,0 mm SO 129 0,0 km/h (0 Bft)
21.01.2019 19:45 -2,3 C 92 % 1020,3 hPa 0,0 mm SO 129 0,0 km/h (0 Bft)
21.01.2019 19:50 -2,4 C 92 % 1020,3 hPa 0,0 mm SO 129 0,0 km/h (0 Bft)
21.01.2019 19:55 -2,3 C 92 % 1020,3 hPa 0,0 mm SO 129 0,0 km/h (0 Bft)
21.01.2019 20:00 -2,4 C 92 % 1020,3 hPa 0,0 mm SO 129 0,0 km/h (0 Bft)
21.01.2019 20:05 -2,4 C 92 % 1020,4 hPa 0,0 mm SO 129 0,0 km/h (0 Bft)
21.01.2019 20:10 -2,4 C 92 % 1020,4 hPa 0,0 mm SO 129 0,0 km/h (0 Bft)
21.01.2019 20:15 -2,4 C 92 % 1020,4 hPa 0,0 mm SO 129 0,0 km/h (0 Bft)
21.01.2019 20:20 -2,4 C 92 % 1020,3 hPa 0,0 mm SO 129 0,0 km/h (0 Bft)
21.01.2019 20:25 -2,4 C 92 % 1020,3 hPa 0,0 mm SO 129 0,0 km/h (0 Bft)
21.01.2019 20:30 -2,4 C 92 % 1020,3 hPa 0,0 mm SO 129 0,0 km/h (0 Bft)
21.01.2019 20:35 -2,4 C 92 % 1020,2 hPa 0,0 mm SO 129 0,0 km/h (0 Bft)
21.01.2019 20:40 -2,5 C 92 % 1020,2 hPa 0,0 mm SO 129 0,0 km/h (0 Bft)
21.01.2019 20:45 -2,5 C 92 % 1020,2 hPa 0,0 mm SO 129 0,0 km/h (0 Bft)
21.01.2019 20:50 -2,5 C 92 % 1020,2 hPa 0,0 mm SO 129 0,0 km/h (0 Bft)
21.01.2019 20:55 -2,5 C 92 % 1020,1 hPa 0,0 mm SO 129 0,0 km/h (0 Bft)
21.01.2019 21:00 -2,5 C 92 % 1020,1 hPa 0,0 mm SO 129 0,0 km/h (0 Bft)
21.01.2019 21:05 -2,6 C 92 % 1020,1 hPa 0,0 mm SO 129 0,0 km/h (0 Bft)
21.01.2019 21:10 -2,6 C 92 % 1020,2 hPa 0,0 mm SO 129 0,0 km/h (0 Bft)
21.01.2019 21:15 -2,6 C 92 % 1020,1 hPa 0,0 mm SO 129 0,0 km/h (0 Bft)
21.01.2019 21:20 -2,6 C 92 % 1020,1 hPa 0,0 mm SO 129 0,0 km/h (0 Bft)
21.01.2019 21:25 -2,7 C 92 % 1020,1 hPa 0,0 mm SO 129 0,0 km/h (0 Bft)
21.01.2019 21:30 -2,7 C 92 % 1020,1 hPa 0,0 mm SO 129 0,0 km/h (0 Bft)
21.01.2019 21:35 -2,7 C 93 % 1020,2 hPa 0,0 mm SO 129 0,0 km/h (0 Bft)
21.01.2019 21:40 -2,7 C 93 % 1020,1 hPa 0,0 mm SO 129 0,0 km/h (0 Bft)
21.01.2019 21:45 -2,7 C 93 % 1020,0 hPa 0,0 mm SO 129 0,0 km/h (0 Bft)
21.01.2019 21:50 -2,7 C 92 % 1020,1 hPa 0,0 mm SO 129 0,0 km/h (0 Bft)
21.01.2019 21:55 -2,7 C 92 % 1020,1 hPa 0,0 mm SO 129 0,0 km/h (0 Bft)
21.01.2019 22:00 -2,7 C 92 % 1020,1 hPa 0,0 mm SO 129 0,0 km/h (0 Bft)
21.01.2019 22:05 -2,7 C 92 % 1020,0 hPa 0,0 mm SO 129 0,0 km/h (0 Bft)
21.01.2019 22:10 -2,7 C 92 % 1020,0 hPa 0,0 mm SO 129 0,0 km/h (0 Bft)
21.01.2019 22:15 -2,7 C 92 % 1020,0 hPa 0,0 mm SO 129 0,0 km/h (0 Bft)
21.01.2019 22:20 -2,7 C 92 % 1020,0 hPa 0,0 mm SO 129 0,0 km/h (0 Bft)
21.01.2019 22:25 -2,7 C 92 % 1020,0 hPa 0,0 mm W-SW 242 4,8 km/h (1 Bft)
21.01.2019 22:30 -2,7 C 92 % 1020,0 hPa 0,0 mm W-SW 242 3,2 km/h (1 Bft)
21.01.2019 22:35 -2,7 C 92 % 1019,9 hPa 0,0 mm W-SW 242 3,2 km/h (1 Bft)
21.01.2019 22:40 -2,7 C 93 % 1019,9 hPa 0,0 mm W-SW 242 0,0 km/h (0 Bft)
21.01.2019 22:45 -2,7 C 93 % 1020,0 hPa 0,0 mm W-SW 242 0,0 km/h (0 Bft)
21.01.2019 22:50 -2,7 C 93 % 1020,0 hPa 0,0 mm W-SW 242 3,2 km/h (1 Bft)
21.01.2019 22:55 -2,7 C 93 % 1020,0 hPa 0,0 mm W-SW 242 4,8 km/h (1 Bft)
21.01.2019 23:00 -2,8 C 93 % 1019,9 hPa 0,0 mm W-SW 242 3,2 km/h (1 Bft)
21.01.2019 23:05 -2,8 C 93 % 1019,9 hPa 0,0 mm W-SW 242 0,0 km/h (0 Bft)
21.01.2019 23:10 -2,8 C 93 % 1019,9 hPa 0,0 mm W-SW 242 0,0 km/h (0 Bft)
21.01.2019 23:15 -2,8 C 93 % 1019,9 hPa 0,0 mm W-SW 242 0,0 km/h (0 Bft)
21.01.2019 23:20 -2,8 C 93 % 1019,8 hPa 0,0 mm W-SW 242 0,0 km/h (0 Bft)
21.01.2019 23:25 -2,8 C 93 % 1019,8 hPa 0,0 mm W-SW 242 0,0 km/h (0 Bft)
21.01.2019 23:30 -2,8 C 93 % 1019,9 hPa 0,0 mm W-SW 242 0,0 km/h (0 Bft)
21.01.2019 23:35 -2,9 C 93 % 1019,9 hPa 0,0 mm W-SW 242 0,0 km/h (0 Bft)
21.01.2019 23:40 -2,9 C 93 % 1019,9 hPa 0,0 mm W-SW 242 0,0 km/h (0 Bft)
21.01.2019 23:45 -2,9 C 93 % 1019,9 hPa 0,0 mm W-SW 242 0,0 km/h (0 Bft)
21.01.2019 23:50 -2,9 C 93 % 1019,9 hPa 0,0 mm W-SW 242 0,0 km/h (0 Bft)
21.01.2019 23:55 -3,0 C 93 % 1019,8 hPa 0,0 mm W-SW 242 0,0 km/h (0 Bft)
_ Min-Zeit 03:15 12:55 23:20 - - - 15:45
Minimum _ -3,5 C 90 % 1019,8 hPa - - - 0,0 km/h (0 Bft)
_ Max-Zeit 14:15 00:30 10:20 00:05 - - 00:30
Maximum _ -1,5 C 94 % 1022,4 hPa 0,2 mm - - 11,3 km/h
O (2 Bft)
Durchschnitt _ -2,7 C 92 % 1021,1 hPa #0,2 mm SO - 5,0 km/h (1 Bft)